Weather History for Diyarbakir, Turkey

Change the Weather History Date:

Thursday, May 29, 2014

  Actual Average Record
Temperature  
Mean Temperature 74 °F -  
Max Temperature 91 °F 92 °F 91 °F (1999)
Min Temperature 57 °F 63 °F 50 °F (2013)
Cooling Degree Days 9    
Growing Degree Days 24 (Base 50)    
Moisture  
Dew Point 50 °F    
Average Humidity 44    
Maximum Humidity 72    
Minimum Humidity 13    
Precipitation  
Precipitation 0.20 in 0.01 in - ()
Sea Level Pressure  
Sea Level Pressure 29.85 in    
Wind  
Wind Speed 4 mph ()    
Max Wind Speed 16 mph    
Max Gust Speed 39 mph    
Visibility 6.9 miles    
Events Rain , Hail , Thunderstorm    
Averages and records for this station are not official NWS values.
T = Trace of Precipitation, MM = Missing Value Source: Averaged Metar Reports

Daily Weather History Graph

Daily Weather History Graph

Search for Another Location

Airport:

Trip Planner

Search our weather history database for the weather conditions in past years. The results will help you decide how hot, cold, wet, or windy it might be!

Date:

Astronomy

May. 29, 2014 Rise Set
Actual Time 5:00 AM EEST 7:33 PM EEST
Civil Twilight 4:29 AM EEST 8:04 PM EEST
Nautical Twilight 3:51 AM EEST 8:42 PM EEST
Astronomical Twilight 3:09 AM EEST 9:24 PM EEST
Moon 5:35 AM EEST (5/29) 8:06 PM EEST (5/29)
Length of Visible Light 15h 34m
Length of Day
14h 33m
New Moon, 0% of the Moon is Illuminated
May 29
New Moon
Jun 5
First Quarter
Jun 13
Full
Jun 19
Last Quarter
Jun 27
New

Hourly Weather History & Observations

Time (EEST) Temp. Heat Index Dew Point Humidity Pressure Visibility Wind Dir Wind Speed Gust Speed Precip Events Conditions
12:00 AM 64 °F - 49 °F 47% 29.73 in 6 mi West 6.9 mph - -  
12:20 AM 64.4 °F - 48.2 °F 56% 29.83 in - West 3.5 mph - N/A   Clear
12:50 AM 62.6 °F - 50.0 °F 63% 29.83 in - WNW 4.6 mph - N/A   Clear
1:20 AM 62.6 °F - 50.0 °F 63% 29.83 in - NW 5.8 mph - N/A   Clear
1:50 AM 60.8 °F - 50.0 °F 68% 29.83 in - Calm Calm - N/A   Clear
2:20 AM 62.6 °F - 50.0 °F 63% 29.83 in - Calm Calm - N/A   Clear
3:00 AM 60 °F - 49 °F 59% 29.73 in 6 mi West 5.8 mph - -  
3:20 AM 59.0 °F - 50.0 °F 72% 29.83 in - West 6.9 mph - N/A   Clear
3:50 AM 59.0 °F - 50.0 °F 72% 29.86 in - West 5.8 mph - N/A   Clear
4:20 AM 59.0 °F - 50.0 °F 72% 29.86 in - WNW 8.1 mph - N/A   Clear
4:50 AM 59.0 °F - 50.0 °F 72% 29.86 in - West 6.9 mph - N/A   Clear
5:20 AM 59.0 °F - 50.0 °F 72% 29.86 in - Calm Calm - N/A   Clear
5:50 AM 60.8 °F - 51.8 °F 72% 29.89 in - Calm Calm - N/A   Clear
6:00 AM 61 °F - 51 °F 62% 29.79 in 6 mi Calm Calm - -  
6:20 AM 64.4 °F - 51.8 °F 64% 29.89 in - Calm Calm - N/A   Clear
6:50 AM 69.8 °F - 53.6 °F 56% 29.89 in - Calm Calm - N/A   Clear
7:20 AM 73.4 °F - 51.8 °F 47% 29.89 in - Calm Calm - N/A   Clear
7:50 AM 73.4 °F - 53.6 °F 50% 29.89 in - Calm Calm - N/A   Clear
8:50 AM 78.8 °F - 48.2 °F 34% 29.92 in - Calm Calm - N/A   Clear
9:00 AM 78 °F - 49 °F 26% 29.80 in 6 mi Calm Calm - -  
9:20 AM 78.8 °F - 48.2 °F 34% 29.89 in - North 4.6 mph - N/A   Clear
9:50 AM 80.6 °F - 48.2 °F 32% 29.89 in - NE 3.5 mph - N/A   Clear
10:20 AM 82.4 °F - 50.0 °F 32% 29.92 in 6.2 mi North 3.5 mph - N/A   Partly Cloudy
10:50 AM 84.2 °F - 46.4 °F 27% 29.89 in 6.2 mi Variable 2.3 mph - N/A   Partly Cloudy
11:20 AM 84.2 °F - 44.6 °F 25% 29.89 in 6.2 mi NNE 4.6 mph - N/A   Partly Cloudy
11:50 AM 86.0 °F - 46.4 °F 25% 29.89 in 6.2 mi Variable 2.3 mph - N/A   Partly Cloudy
12:00 PM 86 °F - 44 °F 14% 29.79 in 12 mi SE 2.3 mph - -   Scattered Clouds
12:20 PM 86.0 °F - 46.4 °F 25% 29.89 in 6.2 mi ESE 6.9 mph - N/A   Scattered Clouds
12:50 PM 87.8 °F - 42.8 °F 21% 29.89 in 6.2 mi Variable 3.5 mph - N/A   Scattered Clouds
1:20 PM 86.0 °F - 44.6 °F 23% 29.86 in 6.2 mi SE 6.9 mph - N/A   Scattered Clouds
1:50 PM 89.6 °F - 46.4 °F 22% 29.86 in 6.2 mi Variable 1.2 mph - N/A   Scattered Clouds
2:20 PM 89.6 °F - 46.4 °F 22% 29.86 in 6.2 mi Variable 2.3 mph - N/A   Scattered Clouds
2:50 PM 91.4 °F - 42.8 °F 18% 29.86 in 6.2 mi SSW 1.2 mph - N/A   Scattered Clouds
3:00 PM 90 °F - 45 °F 13% 29.74 in 12 mi SSW 1.2 mph - -   Partly Cloudy
3:20 PM 87.8 °F - 44.6 °F 22% 29.83 in 6.2 mi ENE 6.9 mph - N/A   Scattered Clouds
3:40 PM 86.0 °F - 44.6 °F 23% 29.83 in 6.2 mi East 6.9 mph - N/A Thunderstorm Thunderstorm
3:50 PM 86.0 °F - 44.6 °F 23% 29.83 in 6.2 mi ENE 6.9 mph - N/A Thunderstorm Thunderstorm
4:08 PM 86.0 °F - 48.2 °F 27% 29.83 in 6.2 mi Calm Calm - N/A Rain , Thunderstorm Light Thunderstorms and Rain
4:15 PM 86.0 °F - 51.8 °F 31% 29.86 in 6.2 mi Calm Calm - N/A Rain , Hail , Thunderstorm Light Thunderstorms with Hail
4:20 PM 73.4 °F - 50.0 °F 44% 29.86 in 6.2 mi Variable 16.1 mph 39.1 mph N/A Rain , Thunderstorm Light Thunderstorms and Rain
4:50 PM 77.0 °F - 57.2 °F 50% 29.83 in 6.2 mi ENE 9.2 mph - N/A Thunderstorm Thunderstorm
5:20 PM 80.6 °F 80.5 °F 55.4 °F 42% 29.83 in 6.2 mi ENE 8.1 mph - N/A   Scattered Clouds
5:50 PM 82.4 °F 81.4 °F 53.6 °F 37% 29.83 in 6.2 mi East 5.8 mph - N/A   Scattered Clouds
6:00 PM 83 °F - 53 °F 25% 29.75 in 12 mi East 5.8 mph - - Thunderstorm Light Thunderstorm
6:20 PM 82.4 °F 81.4 °F 53.6 °F 37% 29.83 in 6.2 mi ESE 4.6 mph - N/A   Scattered Clouds
6:50 PM 80.6 °F 80.3 °F 53.6 °F 39% 29.83 in 6.2 mi ESE 4.6 mph - N/A   Scattered Clouds
7:20 PM 77.0 °F - 51.8 °F 41% 29.83 in 6.2 mi SE 5.8 mph - N/A   Partly Cloudy
7:50 PM 75.2 °F - 53.6 °F 47% 29.86 in 6.2 mi SSE 4.6 mph - N/A   Partly Cloudy
8:20 PM 75.2 °F - 48.2 °F 38% 29.86 in 6.2 mi South 3.5 mph - N/A   Partly Cloudy
8:50 PM 71.6 °F - 53.6 °F 53% 29.86 in 6.2 mi Variable 2.3 mph - N/A   Partly Cloudy
9:00 PM 71 °F - 53 °F 41% 29.75 in 12 mi North 2.3 mph - -   Scattered Clouds
9:20 PM 69.8 °F - 55.4 °F 60% 29.89 in - NNW 6.9 mph - N/A   Clear
9:50 PM 71.6 °F - 51.8 °F 50% 29.89 in - Variable 1.2 mph - N/A   Clear
10:20 PM 68.0 °F - 51.8 °F 56% 29.89 in - North 4.6 mph - N/A   Clear
10:50 PM 69.8 °F - 51.8 °F 53% 29.89 in - NNE 3.5 mph - N/A   Clear
11:20 PM 66.2 °F - 51.8 °F 60% 29.89 in - Calm Calm - N/A   Clear
11:50 PM 66.2 °F - 51.8 °F 60% 29.89 in - Calm Calm - N/A   Clear